Flag for U.S.A. Weather past 2 weeks in Pueblo, Colorado, U.S.A.

Now
69 °F

Sunny.


Feels Like: 69 °F
Forecast: 46 / 71 °F
Wind: 14 mph from Southeast

Location: Pueblo Memorial Airport

Current Time: May 22, 2015 at 3:29:08 PM

Latest Report: May 22, 2015 at 2:53 PM


Visibility: 10 mi

Pressure: 29.79 "Hg

Humidity: 51%

Dew point: 50 °F

Location of PuebloLocation

Historic Weather in Pueblo — Graph

°F

Pueblo temperature yesterday

Maximum temperature yesterday: 54 °F (at 4:53 PM)
Minimum temperature yesterday: 42 °F (at 3:01 AM)
Average temperature yesterday: 47 °F

Past Weeks' High & Low Weather Summary

 TemperatureHumidityPressure
High75 °F (May 12, 3:53 PM)100% (May 9, 7:53 AM)30.28 "Hg (May 9, 7:53 AM)
Low35 °F (May 10, 1:52 AM)20% (May 17, 1:53 PM)29.47 "Hg (May 16, 3:53 PM)
Average53 °F71%29.92 "Hg
* Reported May 7 1:53 PM — May 22 1:53 PM, Pueblo, Weather by CustomWeather, © 2015

Note: Actual official high and low records may vary slightly from our data, if they occured in-between our weather recording intervals... More about our weather records

Advertising

Pueblo weather history for previous 24 hours

 ConditionsComfort  
Time TempWeatherWind HumidityBarometerVisibility
1:53 PM
Fri, May 22
66 °FSunny.9 mph59%29.82 "Hg10 mi
12:53 PM63 °FSunny.5 mph63%29.85 "Hg10 mi
11:53 AM60 °FSunny.6 mph65%29.88 "Hg10 mi
10:53 AM57 °FSunny.No wind67%29.90 "Hg10 mi
9:53 AM55 °FPartly sunny.5 mph74%29.91 "Hg10 mi
8:53 AM51 °FPartly sunny.No wind86%29.92 "Hg10 mi
7:53 AM47 °FMostly cloudy.5 mph93%29.92 "Hg10 mi
6:53 AM47 °FFog.8 mph97%29.93 "Hg3 mi
5:53 AM48 °FLow clouds.6 mph96%29.91 "Hg10 mi
4:53 AM48 °FLight rain. Low clouds.7 mph96%29.91 "Hg8 mi
3:53 AM48 °FLight rain. Fog.12 mph96%29.93 "Hg6 mi
2:53 AM48 °FMostly cloudy.12 mph96%29.94 "Hg10 mi
1:53 AM50 °FMostly cloudy.8 mph93%29.96 "Hg10 mi
12:53 AM48 °FLight rain. Fog.9 mph100%29.99 "Hg5 mi
11:53 PM
Thu, May 21
48 °FLight rain. Fog.14 mph96%30.03 "Hg6 mi
10:53 PM50 °FOvercast.13 mph86%30.04 "Hg10 mi
9:53 PM51 °FMostly cloudy.14 mph86%30.05 "Hg10 mi
8:53 PM52 °FLight rain. More clouds than sun.13 mph86%30.03 "Hg7 mi
7:53 PM52 °FMostly cloudy.13 mph83%30.04 "Hg10 mi
7:00 PM53 °FMore clouds than sun.16 mph80%30.09 "Hg10 mi
5:53 PM53 °FCloudy.14 mph80%30.04 "Hg10 mi
4:53 PM54 °FMostly cloudy.9 mph77%30.06 "Hg10 mi
3:53 PM52 °FOvercast.9 mph80%30.10 "Hg10 mi
3:00 PM51 °FMore clouds than sun.6 mph80%30.17 "Hg10 mi
Weather by CustomWeather, © 2015

See weather overviewHow to use our weather pages